Regional Weather Roundup
Issued by NWS Goodland, KS

Home | Current Version | Previous Version | Graphics & Text | Print | Product List | Glossary On
Versions: 1 2 3 4 5 6 7 8 9 10 11 12 13 14 15 16 17 18 19 20 21 22 23 24 25 26 27 28 29 30 31 32 33 34 35 36 37 38 39 40 41 42 43 44 45 46 47 48 49 50
000
ASUS43 KGLD 231408
RWRGLD

GOODLAND FORECAST AREA HOURLY WEATHER ROUNDUP
NATIONAL WEATHER SERVICE GOODLAND KS
700 AM MST MON JAN 23 2017

...OFFICIAL OBSERVATIONS...

CITY           SKY/WX    TMP DP  RH WIND       PRES   REMARKS
GOODLAND KS    CLEAR     26  23  88 S9        29.72F
HILL CITY KS   CLEAR     22  21  96 CALM      29.82S
IMPERIAL NEB   MOCLDY    28  23  81 SE9       29.70F
MCCOOK NEB     CLEAR     23  22  96 E6        29.77F
AKRON CO       CLEAR     28  18  66 SW9       29.60F
BURLINGTON CO  CLEAR     30  23  75 S9        29.69F
LIMON CO       CLOUDY    19  17  92 CALM      29.65F
$$

...UNOFFICIAL OBSERVATIONS...

CITY           SKY/WX    TMP DP  RH WIND       PRES   REMARKS
LENORA KS        N/A     29  32 100 SE5         N/A
NORTON KS      CLEAR     23  19  86 E3        29.78F
SHARON SPRINGS   N/A     31  26  80 S12         N/A
TRENTON NEB      N/A     26  32 100 E5          N/A
KIT CARSON CO    N/A     27  22  81 CALM        N/A
YUMA CO        FAIR      23  19  86 S5        29.64F
$$



USA.gov is the U.S. government's official web portal to all federal, state and local government web resources and services.